CAPE
0 0 0 0 0 0 0 0 0 0 0 0 0 0 0 0 0 0 0 0 0 0 0 6 25 11 4 198 798 980 1088 1064 1092 1310 1298 1247 1167 1105 1007 913 867 825 779 825 948 1014 1024 990 993 900 968 1134 1142 1045 928 955 1091 1273 1284 1254 1286 1462 1431 1330 1143 1202 1268 1180 1274 1191 1038 934 976 1202 1171 1096 958 860 948 1289 1615 2155 2318 2886 3010 3120
0 0 0 0 0 0 0 0 0 0 0 0 0 0 0 0 0 0 0 0 0 0 0 0 0 0 0 78 552 930 1020 1050 1071 1214 1304 1279 1225 1174 1113 1007 952 931 818 816 923 1027 1095 944 1035 961 992 1169 1216 1283 1046 983 993 1112 1160 1336 1299 1331 1452 1382 1389 1424 1382 1359 1339 1337 1224 984 954 1171 1179 1072 1052 781 817 1508 1840 2042 2302 2831 3022 3099
0 0 0 0 0 0 0 0 0 0 0 0 0 0 0 0 0 0 0 0 0 0 0 0 0 0 0 1 374 875 986 1078 1039 1109 1239 1317 1282 1257 1167 1141 1077 999 941 887 986 1013 1095 1147 1078 1077 1043 1123 1194 1256 1187 1054 983 1082 1160 1326 1519 1502 1423 1417 1476 1657 1598 1601 1567 1384 1345 1124 1012 1055 1090 959 1030 1072 949 1187 1725 1981 2454 2770 2884 3087
0 0 0 0 0 0 0 0 0 0 0 0 0 0 0 0 0 0 0 0 0 0 0 0 0 0 0 0 184 724 865 1071 1076 1027 1196 1308 1345 1305 1226 1205 1142 1072 1080 1047 1035 1002 996 1037 1203 1207 1186 1219 1203 1332 1262 1175 1077 1109 1235 1341 1454 1412 1398 1381 1490 1600 1702 1752 1754 1499 1485 1218 1098 1166 1089 1163 1199 1152 1060 1040 1679 2239 2579 2776 2708 2946
0 0 0 0 0 0 0 0 0 0 0 0 0 0 0 0 0 0 0 0 0 0 0 0 0 0 0 0 0 427 779 920 1039 952 996 1166 1271 1312 1278 1222 1196 1123 1156 1158 1080 1036 1066 1102 1150 1154 1181 1257 1258 1294 1304 1260 1156 1083 1139 1349 1461 1516 1487 1560 1544 1478 1556 1630 1635 1517 1388 1213 1146 1213 1154 1155 1174 1177 1254 1065 1575 2157 2677 2807 2700 2913
0 0 0 0 0 0 0 0 0 0 0 0 0 0 0 0 0 0 0 0 0 0 0 0 0 0 0 0 0 118 761 880 957 928 898 1000 1092 1165 1157 1211 1196 1148 1170 1189 1153 1140 1128 1148 1105 1176 1207 1206 1299 1292 1332 1358 1240 1180 1240 1346 1386 1425 1503 1498 1609 1584 1526 1422 1436 1345 1142 1182 1220 1291 1388 1344 1308 1292 1264 687 468 2032 2489 2517 2764 2986
0 0 0 0 0 0 0 0 0 0 0 0 0 0 0 0 0 0 0 0 0 0 0 0 0 0 0 0 0 292 569 795 917 900 913 918 963 1015 1081 1108 1143 1117 1100 1139 1180 1182 1150 1185 1232 1277 1129 1112 1337 1340 1357 1420 1340 1320 1337 1377 1480 1471 1527 1475 1523 1560 1449 1357 1414 1377 1331 1332 1396 1426 1662 1670 1395 1334 1437 1191 1622 2288 2581 2758 2675 2709
0 0 0 0 0 0 0 0 0 0 0 0 0 0 0 0 0 0 0 0 0 0 0 0 0 0 0 0 0 0 279 589 872 960 953 866 972 879 952 977 1096 1080 1037 1073 1141 1190 1200 1263 1249 1306 1383 1354 1348 1418 1447 1421 1385 1437 1515 1540 1492 1467 1491 1492 1516 1458 1396 1400 1379 1389 1481 1462 1617 1433 1812 2012 1922 1827 2037 1812 1640 1997 2533 2845 2850 2822
0 0 0 0 0 0 0 0 0 0 0 0 0 0 0 0 0 0 0 0 0 0 0 0 0 0 0 0 0 0 12 419 903 1010 988 972 989 898 888 892 966 1020 1028 999 1040 1102 1142 1232 1270 1333 1370 1333 1330 1366 1420 1443 1418 1457 1547 1584 1570 1551 1568 1572 1521 1552 1531 1534 1541 1569 1573 1656 1587 1570 1721 1908 1846 1979 2073 1961 2100 2490 2575 3001 3223 3168
0 0 0 0 0 0 0 0 0 0 0 0 0 0 0 0 0 0 0 0 0 0 0 0 0 0 0 0 0 0 0 45 478 884 933 1027 1034 957 896 887 862 920 997 927 962 1043 1091 1153 1234 1290 1323 1335 1305 1354 1448 1419 1406 1436 1513 1548 1574 1595 1590 1587 1584 1583 1614 1594 1670 1641 1643 1670 1746 1710 1745 1638 1854 2086 2370 2198 2415 2655 2824 2831 3085 3242
0 0 0 0 0 0 0 0 0 0 0 0 0 0 0 0 0 0 0 0 0 0 0 0 0 0 0 0 0 0 0 0 42 501 847 1026 1036 1004 1007 937 857 833 863 880 880 955 1054 1062 1137 1170 1249 1363 1336 1342 1415 1405 1404 1408 1442 1509 1543 1563 1577 1544 1573 1577 1644 1646 1661 1684 1719 1760 1792 1856 1914 1778 1937 2073 2279 2217 2356 2623 2850 2946 2994 2993
0 0 0 0 0 0 0 0 0 0 0 0 0 0 0 0 0 0 0 0 0 0 0 0 0 0 0 0 0 0 0 0 0 28 461 710 934 996 1064 964 896 866 860 829 805 838 937 1036 1079 1114 1212 1256 1337 1386 1450 1386 1380 1408 1429 1469 1547 1582 1606 1586 1567 1618 1585 1583 1592 1706 1804 1787 1807 1930 1804 1781 1878 1992 2069 2133 2315 2639 2835 3027 3025 3313
0 0 0 0 0 0 0 0 0 0 0 0 0 0 0 0 0 0 0 0 0 0 0 0 0 0 0 0 0 0 0 0 0 0 59 354 660 919 987 1016 958 894 863 862 845 838 888 967 1031 1076 1211 1382 1450 1488 1524 1383 1370 1404 1485 1542 1597 1675 1632 1666 1588 1613 1618 1590 1615 1682 1788 1860 1928 2029 1931 1947 2000 2127 2123 2145 2273 2690 2702 2898 3067 3189
0 0 0 0 0 0 0 0 0 0 0 0 0 0 0 0 0 0 0 0 0 0 0 0 0 0 0 0 0 0 0 0 0 0 0 47 404 770 966 1021 922 929 890 878 856 838 882 988 1029 1100 1190 1331 1499 1478 1506 1441 1466 1526 1519 1625 1618 1734 1676 1741 1677 1680 1700 1675 1667 1797 1823 1839 1974 2016 1969 1938 1937 2084 2108 2299 2312 2339 2277 2814 2812 2855
0 0 0 0 0 0 0 0 0 0 0 0 0 0 0 0 0 0 0 0 0 0 0 0 0 0 0 0 0 0 0 0 0 0 0 26 134 584 675 835 911 934 914 906 913 888 879 947 993 1048 1198 1405 1401 1385 1452 1463 1588 1672 1642 1718 1707 1805 1806 1767 1764 1719 1738 1765 1778 1851 1837 1885 1920 1863 1906 1927 1871 2031 2146 2092 2140 2411 2336 2534 2660 2917
0 0 0 0 0 0 0 0 0 0 0 0 0 0 0 0 0 0 0 0 0 0 0 0 0 0 0 0 0 0 0 0 0 0 0 10 65 147 304 538 753 851 891 866 898 899 945 1024 999 1039 1215 1323 1364 1415 1380 1526 1704 1849 1785 1910 1844 1890 1899 1798 1812 1822 1838 1862 1842 1885 1838 1812 1829 1822 1870 1976 2074 2240 2143 2214 2200 2516 2643 2593 2784 3152
0 0 0 0 0 0 0 0 0 0 0 0 0 0 0 0 0 0 0 0 0 0 0 0 0 0 0 0 0 0 0 0 0 0 0 0 1 106 97 258 547 741 849 840 827 875 1012 982 1094 1002 1052 1129 1257 1340 1389 1637 1885 1828 1884 1908 1898 1940 1927 1827 1905 1902 1866 1923 1895 1904 1856 1821 1788 1803 1781 1791 1889 1630 1907 2123 2203 2270 2310 2544 2874 2995
0 0 0 0 0 0 0 0 0 0 0 0 0 0 0 0 0 0 0 0 0 0 0 0 0 0 0 0 0 0 0 0 0 0 0 0 4 44 36 216 428 631 801 859 887 938 1017 1059 1042 944 977 1029 1136 1294 1446 1834 1806 1908 1996 1876 1938 1982 2044 1917 1948 1913 1938 2021 1975 1981 1889 1859 1832 1696 1588 1629 1697 1685 1945 2110 2121 2013 2312 2343 2357 2561
0 0 0 0 0 0 0 0 0 0 0 0 0 0 0 0 0 0 0 0 0 0 0 0 0 0 0 0 0 0 0 0 0 0 0 0 0 0 17 181 425 573 715 866 884 993 1015 937 1010 1004 957 957 1087 1273 1369 1665 1592 1801 1850 1791 1775 1860 1894 1909 1849 1945 2069 2064 1974 1951 1934 1915 1893 1733 1686 1649 1788 1906 1902 1704 1873 1900 1996 2053 2262 2575
0 0 0 0 0 0 0 0 0 0 0 0 0 0 0 0 0 0 0 0 0 0 0 0 0 0 0 0 0 0 0 0 0 0 0 0 0 0 12 69 339 509 622 820 857 868 883 928 931 916 914 914 1036 1240 1335 1373 1375 1484 1623 1824 1782 1796 1915 1920 1881 2034 2154 2098 2009 1981 2026 2029 1994 1949 1862 1845 1926 1879 1767 1724 1732 1803 1801 2057 2040 2155
0 0 0 0 0 0 0 0 0 0 0 0 0 0 0 0 0 0 0 0 0 0 0 0 0 0 0 0 0 0 0 0 0 0 0 0 0 0 25 113 311 461 556 672 757 855 889 887 846 871 900 902 971 1134 1210 1203 1300 1332 1439 1624 1687 1817 1836 1848 1831 1978 2263 2160 2132 2217 2205 2111 2072 1997 1902 1914 1943 1849 1789 1824 1807 1739 1764 1995 1959 1985
0 0 0 0 0 0 0 0 0 0 0 0 0 0 0 0 0 0 0 0 0 0 0 0 0 0 0 0 0 0 0 0 0 0 0 0 0 0 10 124 407 539 630 637 652 746 827 881 844 832 837 860 907 1040 1023 1108 1215 1292 1397 1509 1628 1727 1771 1755 1776 2028 2111 2129 2160 2202 2264 2124 2065 2053 1951 1911 1872 1871 1840 1896 1909 1847 1868 1957 2017 1979
0 0 0 0 0 0 0 0 0 0 0 0 0 0 0 0 0 0 0 0 0 0 0 0 0 0 0 0 0 0 0 0 0 0 0 0 0 0 1 61 291 563 553 483 572 619 736 883 867 832 898 926 949 1077 1052 1100 1183 1261 1378 1442 1531 1589 1684 1640 1734 1820 2138 2224 2270 2307 2240 2173 2192 2112 2051 1911 1866 1787 1726 1821 1882 1873 1877 1710 1728 1972
0 0 0 0 0 0 0 0 0 0 0 0 0 0 0 0 0 0 0 0 0 0 0 0 0 0 0 0 0 0 0 0 0 0 0 0 0 0 0 6 205 581 714 552 522 488 644 853 924 974 984 1036 1087 1158 1060 1069 1183 1254 1357 1401 1464 1514 1581 1599 1696 1811 2126 2153 2118 2186 2250 2255 2192 2020 1998 1897 1870 1812 1739 1691 1798 1892 1806 1711 1664 1871
0 0 0 0 0 0 10 2 0 0 0 0 0 0 0 0 0 0 0 0 0 0 0 0 0 0 0 0 0 0 0 0 0 0 0 0 0 0 0 4 89 719 856 576 587 630 769 840 987 1214 1199 1221 1256 1055 1186 1159 1180 1262 1377 1396 1454 1472 1542 1607 1694 1772 1950 1949 1941 2000 2200 2190 2096 2039 1990 1889 1849 1833 1742 1675 1665 1776 1759 1722 1669 1766
0 0 0 0 0 0 4 4 0 0 0 0 0 0 0 0 0 0 0 0 0 0 0 0 0 0 0 0 0 0 0 0 0 0 0 0 0 0 0 0 80 476 948 774 799 847 752 1077 1185 1343 1531 1452 1105 975 1258 1387 1235 1213 1362 1447 1464 1467 1565 1574 1628 1716 1844 1826 1825 2009 2178 2197 2068 1952 1956 1914 1838 1809 1748 1690 1643 1684 1778 1759 1776 1798
0 0 0 0 0 0 6 1 0 0 0 0 0 0 0 0 0 0 0 0 0 0 0 0 0 0 0 0 0 0 0 0 0 0 0 0 0 0 0 27 43 198 597 610 936 917 1303 1430 1622 1716 1749 1317 1008 972 1202 1158 1185 1222 1515 1508 1419 1477 1534 1639 1663 1790 1794 1818 1802 2096 2259 2166 2071 2009 1938 2002 1897 1852 1802 1708 1651 1632 1726 1783 1822 1844
0 0 0 0 0 0 0 3 1 0 0 0 0 0 0 0 0 0 0 0 0 0 0 0 0 0 0 0 0 0 0 0 0 0 0 0 0 0 0 96 60 99 171 642 861 1092 1346 1718 1788 1782 1681 1284 1050 1085 1042 1068 1118 1205 1572 1506 1453 1493 1577 1644 1727 1828 1874 1837 1913 2214 2366 2251 2169 2040 2068 2052 2119 2035 1886 1807 1743 1768 1740 1820 1871 1840
1 1 0 0 0 0 0 0 4 0 0 0 0 0 0 0 0 0 0 0 0 0 0 0 0 0 0 0 0 0 0 0 0 0 0 0 0 0 0 0 0 4 179 320 882 1396 1428 1445 1742 1858 1653 1470 1211 1167 1118 1132 1168 1370 1591 1487 1549 1511 1634 1779 1817 1928 1880 1940 2030 2353 2470 2325 2277 2196 2194 2171 2268 2177 2042 1955 1923 1890 1897 1915 1897 1848
0 0 2 0 0 0 0 0 2 0 0 0 0 0 0 0 0 0 0 0 0 0 0 0 0 0 0 0 0 0 0 0 0 0 0 0 0 0 0 0 0 0 0 64 575 751 1476 1619 1678 2016 1954 1788 1273 1310 1163 1196 1378 1482 1480 1506 1485 1629 1671 1800 1950 1990 1890 1996 2231 2510 2462 2487 2416 2369 2356 2328 2411 2388 2218 2108 2075 1991 1996 2011 2012 1993
0 0 3 0 0 0 0 0 0 1 0 0 0 0 0 0 0 0 0 0 0 0 0 0 0 0 0 130 381 97 88 1056 389 318 1478 2132 2047 1670 979 144 0 0 0 0 72 801 1114 1342 1628 1929 1926 1817 1693 1602 1296 1492 1383 1279 1212 1474 1516 1610 1641 1952 2164 2122 2009 2133 2381 2437 2432 2554 2484 2438 2429 2424 2401 2412 2374 2287 2234 2184 2183 2131 2100 2066
1 3 0 0 0 0 0 0 0 0 0 0 0 0 0 0 0 3 33 19 4 0 0 0 0 0 388 316 600 410 1184 1970 2032 2013 2066 1998 2005 2157 2256 1864 629 0 0 0 0 296 1012 1152 1619 1831 1835 1646 1532 1613 1514 1627 1370 1396 1256 1407 1410 1575 1706 1742 1923 2017 2219 2277 2411 2407 2500 2439 2412 2376 2405 2408 2353 2386 2352 2325 2286 2338 2333 2227 2220 2304
10 1 0 0 0 0 0 0 0 0 0 0 0 0 0 0 12 12 47 36 21 6 3 0 2 212 94 423 1103 1414 2020 2004 1780 1764 1759 1835 1820 1959 2202 2321 1974 582 0 0 0 182 497 836 1314 1728 1564 1567 1475 1462 1437 1572 1426 1510 1460 1715 1571 1520 1558 1674 1774 1967 2279 2194 2346 2489 2464 2403 2434 2424 2390 2388 2348 2371 2379 2389 2395 2363 2288 2175 2210 2255
4 4 0 4 4 0 2 0 0 0 0 0 15 0 1 31 31 48 42 37 7 1 3 1 2 59 111 315 1168 1684 1793 1682 1894 1904 1782 1896 1848 1872 2002 2262 2212 1025 104 1 0 1 358 977 1219 1594 1668 1828 1695 1536 1504 1497 1451 1637 1640 1787 1895 1698 1978 2035 2018 2240 2167 2310 2431 2473 2469 2548 2474 2448 2431 2443 2425 2448 2431 2404 2372 2327 2274 2217 2290 2341
2 8 2 5 2 0 2 4 1 0 0 22 0 2 2 20 12 65 18 27 22 4 0 0 6 33 327 585 1027 1503 1837 1945 1892 1903 1740 1717 1818 1870 1793 1983 2429 1615 191 38 100 34 840 1385 1558 1724 1920 1651 1561 1619 1684 1632 1611 1850 1996 2078 1880 2026 2418 2246 2163 2357 2307 2422 2471 2538 2540 2589 2513 2537 2528 2552 2512 2481 2464 2429 2445 2375 2291 2192 2250 2404
1 4 12 5 1 2 0 5 6 0 7 0 0 52 53 51 56 103 61 47 21 0 3 1 0 155 331 562 921 1326 1324 1332 1408 1858 1715 1696 1669 1870 2005 2123 2287 2380 1463 248 504 734 1284 1027 1319 1364 1558 1514 1526 1598 1594 1635 1594 1649 1803 1921 2052 2089 2316 2318 2410 2374 2443 2454 2481 2522 2541 2568 2586 2631 2647 2637 2560 2512 2491 2522 2545 2548 2431 2269 2195 2253
2 12 16 4 1 6 0 0 0 3 5 45 4 0 68 124 75 102 187 16 0 0 3 2 74 292 488 887 1139 1250 1703 1372 1343 1836 1654 1578 1753 1809 2097 2203 2064 2499 2139 1035 682 997 1653 1420 1594 1337 1885 1613 1553 1561 1591 1642 1673 1772 2048 2079 2141 2476 2435 2473 2559 2510 2492 2500 2512 2462 2480 2477 2544 2698 2733 2700 2633 2596 2562 2624 2643 2617 2545 2432 2298 2289
0 3 12 2 8 6 2 0 0 4 25 30 0 0 0 37 65 73 66 24 35 22 13 100 236 471 594 848 1167 1350 1803 1786 1941 1818 1502 1753 1802 1885 2065 2248 2167 2536 2181 919 885 1418 1662 1514 1626 2097 1516 1722 1574 1642 1842 1875 1921 2359 2407 2270 2598 2695 2656 2562 2552 2624 2685 2485 2526 2536 2531 2561 2626 2773 2802 2850 2783 2716 2654 2640 2621 2630 2600 2563 2444 2312
1 8 16 1 0 1 0 0 0 1 13 34 11 0 0 14 74 92 54 133 1 16 41 7 469 846 861 1072 1278 1699 2059 1661 1678 1331 1512 1608 1774 1864 1748 2069 2260 2484 2533 1715 988 1090 1250 1822 1731 1721 1896 1754 1842 2114 2324 2211 2313 2399 2611 2771 2557 2413 2515 2563 2596 2740 2832 2786 2756 2741 2740 2733 2796 2888 2901 2968 2915 2800 2781 2772 2784 2675 2703 2632 2553 2500
7 4 4 1 6 1 0 0 0 0 21 60 60 33 0 0 81 82 73 137 4 48 198 260 544 836 873 965 1094 1346 1311 1375 1210 1466 1589 1738 1821 1957 1885 1716 1971 2214 2520 2357 1559 1422 2064 2550 2347 1749 1909 1809 2181 2156 2302 2269 2110 2182 2452 2683 2540 2531 2655 2750 2916 2970 2947 2869 2933 2971 2989 2954 3148 3126 2948 3038 3052 3038 3024 3028 2897 2918 2915 2822 2696 2714
8 14 5 3 2 5 2 0 0 2 2 60 84 65 14 106 112 68 145 11 2 43 269 320 517 654 789 860 981 1299 1012 870 1211 1474 1629 1882 1928 1870 1972 1815 1728 1976 2221 2445 2652 2469 2045 2162 2071 1888 1716 2230 2754 2219 2071 2065 2174 2705 2942 2913 2759 2802 2849 3107 3280 3386 3374 3290 3205 3219 3244 3138 3260 3222 3074 3122 3206 3186 3130 3146 3123 3034 3078 2984 2850 2903
14 17 8 2 7 7 2 1 0 5 33 51 108 63 46 6 30 122 13 14 71 106 286 327 498 659 704 804 850 979 1239 1326 1373 1720 1961 1939 1986 2030 1948 1892 1908 1812 2048 2191 2536 2824 2856 1995 2430 2354 2211 2695 2228 2151 2339 2546 2668 2869 3062 2956 2960 3169 3030 3522 3806 3750 3803 3890 3570 3437 3446 3417 3511 3433 3249 3346 3463 3552 3508 3389 3238 3207 3218 2840 2999 3158
12 2 9 0 5 7 0 1 0 13 2 24 82 46 28 49 14 12 10 2 0 145 346 406 498 688 726 792 863 1051 1282 1542 1886 2114 2054 2170 2254 2207 2151 2022 1999 1881 1785 2002 2231 2393 2699 3177 3256 2878 2381 2014 1970 2015 2149 2183 2759 2884 3026 3053 3299 3108 3276 3543 3454 3774 3815 3870 3656 3812 3717 3695 3732 3611 3496 3615 3752 3866 3798 3736 3579 3549 3556 3503 3417 3430
1 10 30 5 71 8 4 0 4 4 8 20 20 4 36 20 20 11 48 52 0 1 354 459 557 689 770 778 964 1207 1443 1743 1987 1973 2143 2249 2284 2283 2262 2246 2247 2288 2059 1846 1896 2003 2537 2895 3021 3061 2873 2120 2218 2423 2450 2573 3273 3301 3333 3241 3527 3543 3539 3733 3807 3883 3886 3944 3971 4049 3929 3977 4012 3941 3777 3960 4124 4072 4005 4016 3938 3842 3820 3781 3646 3515
9 20 21 21 12 3 4 7 3 17 46 10 11 5 54 68 71 13 0 56 24 74 456 487 565 667 766 844 933 1259 1604 1921 1932 2043 2286 2326 2451 2567 2582 2584 2563 2588 2580 2553 2509 2340 2242 2570 2899 2992 3160 3465 3654 3380 3202 3300 3677 3742 3616 4507 4337 4082 3894 3993 3995 3972 3969 3859 3947 4108 4028 4157 4144 4132 4129 4270 4358 4271 4214 4235 4176 4028 3987 3814 3687 3439
2 21 30 41 14 6 5 3 0 0 2 7 0 3 8 17 40 60 18 0 0 241 164 431 581 665 756 859 988 1121 1516 1602 1758 2057 2189 2284 2510 2564 2572 2645 2702 2704 2751 2795 2831 2774 2595 2487 2518 2704 2846 3020 3463 3970 4326 4217 4112 4223 4664 4367 4572 4455 4522 4359 4226 4145 3979 3920 4064 4172 4141 4335 4298 4490 4494 4496 4370 4271 4318 4202 4251 4120 4167 3959 3580 3509
2 26 30 40 8 0 7 0 0 0 1 15 1 2 9 12 31 52 54 23 69 114 278 275 586 661 509 658 936 1202 1356 1300 1588 1822 2036 2222 2388 2489 2614 2722 2735 2800 2918 3054 2992 2994 3082 2983 2808 2600 2520 2549 2803 3204 3588 4014 4267 4406 4310 4529 4698 4835 5104 4818 4684 4667 4741 4727 4482 4454 4320 4280 4142 4292 4438 4503 4375 4383 4452 4368 4412 4262 4279 4126 3954 3702
3 29 27 29 14 1 3 0 2 0 0 8 9 8 15 5 15 22 28 38 10 75 354 375 359 286 354 385 911 997 1058 1117 1259 1591 1865 2021 2275 2400 2596 2725 2778 2800 2923 2927 3020 3194 3239 3252 3245 3058 2860 2826 2854 2946 3078 3309 3638 3835 4126 4442 4664 4696 4870 4992 4827 4748 4650 4691 4757 4724 4766 4729 4500 4592 4588 4650 4518 4473 4492 4445 4385 4449 4423 4269 4132 4081
8 22 13 9 12 0 0 2 3 0 4 1 1 8 2 17 7 6 23 31 12 7 8 293 358 204 427 507 630 873 951 977 1018 1200 1446 1750 2114 2305 2503 2674 2708 2785 2969 2914 2997 3072 3211 3273 3371 3422 3328 3198 3244 3295 3390 3511 3701 3927 4256 4571 4780 5164 5103 5011 5153 5181 4920 4578 4431 4313 4270 4486 4634 4643 4700 4857 4930 4316 4261 4329 4555 4631 4578 4156 4460 4345
13 1 14 9 2 1 2 5 5 4 4 3 1 0 0 7 4 11 13 15 11 6 61 158 333 300 291 472 632 664 809 878 883 920 1127 1417 1711 1992 2243 2502 2565 2686 2851 2916 3043 3120 3111 3154 3274 3430 3578 3539 3598 3596 3593 3651 3725 3814 3899 4095 5016 5691 5423 4853 5021 5572 5565 5226 5056 4871 4420 4413 4508 4347 4478 4414 3810 3850 3910 3944 4131 4182 4164 4920 4204 3935
6 5 9 6 6 6 5 9 4 11 12 6 3 1 0 0 8 10 6 1 0 0 0 62 194 174 163 274 508 574 642 805 811 819 939 1155 1454 1721 1827 2152 2328 2578 2792 2733 2884 2998 3116 3129 3195 3301 3422 3487 3560 3586 3615 3750 3771 3796 3784 3814 4106 5092 5684 5724 5678 5599 5334 5085 5330 5118 5022 4832 4754 4950 4668 3794 3596 3574 3578 3621 3737 3842 3924 3932 4056 3976
Wind_Speed
nan nan nan nan nan nan nan nan nan nan nan nan nan nan nan nan nan nan nan nan nan nan nan nan nan nan nan 16 18 18 14 11 12 8 5 2 2 2 2 3 6 9 12 11 13 13 12 10 6 5 4 4 4 5 5 6 6 6 6 5 6 7 9 9 9 9 9 9 11 12 12 13 14 14 14 14 15 15 15 15 15 14 14 14 14 14
nan nan nan nan nan nan nan nan nan nan nan nan nan nan nan nan nan nan nan nan nan nan nan nan nan nan nan nan 18 22 18 12 7 5 4 2 2 2 2 4 7 5 4 8 11 13 12 9 9 5 5 5 5 5 5 6 6 7 7 7 7 8 8 10 9 8 8 9 10 9 10 12 13 13 13 14 14 15 15 14 15 15 15 14 14 14
nan nan nan nan nan nan nan nan nan nan nan nan nan nan nan nan nan nan nan nan nan nan nan nan nan nan nan nan 21 20 16 13 8 4 3 3 2 4 2 3 3 3 6 9 12 14 13 13 11 6 5 6 6 4 5 6 7 8 8 8 8 9 8 9 8 8 8 9 9 8 9 9 11 12 13 14 14 13 14 14 13 14 14 14 14 14
nan nan nan nan nan nan nan nan nan nan nan nan nan nan nan nan nan nan nan nan nan nan nan nan nan nan nan nan 21 17 15 15 12 10 10 7 4 3 2 1 2 5 5 10 13 15 15 14 12 8 5 5 5 4 6 5 6 8 9 9 9 10 10 9 8 8 7 6 6 7 10 8 9 10 11 12 14 14 14 14 13 12 13 13 14 13
nan nan nan nan nan nan nan nan nan nan nan nan nan nan nan nan nan nan nan nan nan nan nan nan nan nan nan nan nan 20 16 19 20 18 17 16 16 17 16 11 6 2 4 7 10 12 13 14 14 12 8 4 5 5 6 5 6 10 9 9 8 10 10 10 7 6 5 6 6 7 10 10 10 11 11 12 14 13 13 13 13 12 12 12 13 13
nan nan nan nan nan nan nan nan nan nan nan nan nan nan nan nan nan nan nan nan nan nan nan nan nan nan nan nan nan 25 22 18 20 19 13 12 15 15 10 6 5 4 4 6 9 12 14 13 12 13 11 7 5 6 6 5 6 9 11 11 11 12 12 10 7 5 5 8 7 8 10 11 12 13 13 13 13 12 11 12 12 12 12 12 12 13
nan nan nan nan nan nan nan nan nan nan nan nan nan nan nan nan nan nan nan nan nan nan nan nan nan nan nan nan nan 27 22 16 21 19 13 14 15 11 9 9 6 3 3 7 9 9 10 11 12 12 11 9 4 4 4 5 5 6 10 11 11 12 12 10 8 5 7 9 10 10 11 12 13 13 15 15 13 12 11 11 11 11 11 11 13 14
nan nan nan nan nan nan nan nan nan nan nan nan nan nan nan nan nan nan nan nan nan nan nan nan nan nan nan nan nan nan 25 21 22 19 16 17 13 9 8 6 5 5 3 4 8 10 11 12 13 14 12 8 5 1 4 5 5 5 7 10 11 14 12 10 8 6 9 9 10 10 11 12 12 10 10 9 9 10 10 10 11 12 12 11 12 14
nan nan nan nan nan nan nan nan nan nan nan nan nan nan nan nan nan nan nan nan nan nan nan nan nan nan nan nan nan nan nan 29 25 20 18 17 12 9 8 7 5 4 4 3 6 9 9 10 12 10 11 9 6 2 2 5 6 8 9 10 12 12 12 10 7 7 8 9 9 9 9 10 9 8 8 7 7 8 8 10 11 12 12 12 12 15
nan nan nan nan nan nan nan nan nan nan nan nan nan nan nan nan nan nan nan nan nan nan nan nan nan nan nan nan nan nan nan nan 24 21 20 18 14 11 11 9 7 8 8 5 5 6 7 8 8 9 8 8 7 3 2 5 8 8 9 9 9 10 12 11 8 8 7 7 7 7 7 5 5 6 8 8 7 7 7 8 9 11 12 13 13 15
nan nan nan nan nan nan nan nan nan nan nan nan nan nan nan nan nan nan nan nan nan nan nan nan nan nan nan nan nan nan nan nan nan 27 26 22 18 15 15 13 11 9 8 8 5 5 5 5 6 6 8 9 8 4 3 5 6 7 7 7 7 8 12 11 9 8 6 6 6 6 4 3 4 5 6 8 8 8 8 9 9 10 11 12 14 15
nan nan nan nan nan nan nan nan nan nan nan nan nan nan nan nan nan nan nan nan nan nan nan nan nan nan nan nan nan nan nan nan nan nan 25 22 18 17 16 15 10 7 8 8 8 5 3 2 5 6 8 9 10 8 5 4 6 7 7 8 7 8 8 9 10 8 7 6 5 5 3 5 6 5 7 7 8 8 8 9 9 9 10 11 12 14
nan nan nan nan nan nan nan nan nan nan nan nan nan nan nan nan nan nan nan nan nan nan nan nan nan nan nan nan nan nan nan nan nan nan nan 25 22 19 18 15 13 11 9 10 9 8 6 1 4 5 7 8 10 8 8 5 4 6 7 6 6 7 7 10 9 9 7 6 5 5 5 6 7 7 7 7 8 7 8 8 8 8 9 10 10 12
nan nan nan nan nan nan nan nan nan nan nan nan nan nan nan nan nan nan nan nan nan nan nan nan nan nan nan nan nan nan nan nan nan nan nan nan 26 22 20 19 17 15 12 10 10 9 7 3 0 2 5 7 7 10 8 7 3 6 8 7 5 6 8 10 10 9 8 5 5 4 6 7 8 8 8 9 9 8 8 8 8 8 8 9 10 12
nan nan nan nan nan nan nan nan nan nan nan nan nan nan nan nan nan nan nan nan nan nan nan nan nan nan nan nan nan nan nan nan nan nan nan nan 28 25 25 24 19 16 14 14 12 10 8 6 4 2 1 2 5 9 9 6 3 5 7 8 6 7 8 9 10 11 9 9 8 7 6 8 9 9 10 10 10 9 7 7 7 7 7 8 10 12
nan nan nan nan nan nan nan nan nan nan nan nan nan nan nan nan nan nan nan nan nan nan nan nan nan nan nan nan nan nan nan nan nan nan nan nan nan 30 31 26 21 17 15 16 14 11 9 9 9 7 4 2 1 7 8 9 5 4 6 8 7 7 8 9 10 12 12 12 12 8 6 7 8 11 11 12 11 10 8 7 6 6 6 8 10 10
nan nan nan nan nan nan nan nan nan nan nan nan nan nan nan nan nan nan nan nan nan nan nan nan nan nan nan nan nan nan nan nan nan nan nan nan nan 30 nan 24 20 18 16 16 13 12 11 12 12 9 5 4 2 4 7 7 6 5 7 8 8 9 10 9 10 12 14 15 13 9 8 8 9 9 9 10 9 7 8 8 7 8 7 7 8 8
nan nan nan nan nan nan nan nan nan nan nan nan nan nan nan nan nan nan nan nan nan nan nan nan nan nan nan nan nan nan nan nan nan nan nan nan nan nan nan 23 21 17 14 12 11 13 14 13 12 11 7 4 4 5 5 4 6 6 7 8 8 9 8 9 11 13 16 15 14 13 10 9 10 10 9 11 11 10 11 10 9 8 8 8 8 8
nan nan nan nan nan nan nan nan nan nan nan nan nan nan nan nan nan nan nan nan nan nan nan nan nan nan nan nan nan nan nan nan nan nan nan nan nan nan nan 19 19 17 15 14 13 18 17 14 14 13 8 3 2 3 3 6 7 6 7 7 7 6 8 11 14 16 19 17 19 17 13 11 12 13 13 13 13 12 11 9 9 7 8 8 8 7
nan nan nan nan nan nan nan nan nan nan nan nan nan nan nan nan nan nan nan nan nan nan nan nan nan nan nan nan nan nan nan nan nan nan nan nan nan nan nan nan 20 20 17 13 13 14 14 12 12 11 8 4 3 6 7 8 7 6 6 8 8 9 12 13 13 16 17 17 18 18 16 14 15 14 14 14 13 13 12 11 10 8 8 7 8 7
nan nan nan nan nan nan nan nan nan nan nan nan nan nan nan nan nan nan nan nan nan nan nan nan nan nan nan nan nan nan nan nan nan nan nan nan nan nan nan 20 20 20 18 14 15 15 13 11 10 10 10 8 8 10 10 9 7 7 7 7 8 9 10 11 12 15 18 19 18 18 16 15 15 14 15 14 14 14 14 14 13 11 10 11 9 8
nan nan nan nan nan nan nan nan nan nan nan nan nan nan nan nan nan nan nan nan nan nan nan nan nan nan nan nan nan nan nan nan nan nan nan nan nan nan nan 20 21 23 19 16 16 16 14 12 12 14 16 17 15 12 10 8 8 8 7 7 8 9 10 10 12 15 17 19 19 16 17 16 17 17 17 15 15 15 15 15 15 14 13 11 10 10
nan nan nan nan nan nan nan nan nan nan nan nan nan nan nan nan nan nan nan nan nan nan nan nan nan nan nan nan nan nan nan nan nan nan nan nan nan nan nan nan 21 22 20 16 14 15 15 16 18 20 19 17 14 12 11 10 8 7 7 9 9 8 8 9 12 15 19 20 19 17 18 18 19 19 16 14 16 15 15 16 16 16 13 12 12 12
nan nan nan nan nan nan nan nan nan nan nan nan nan nan nan nan nan nan nan nan nan nan nan nan nan nan nan nan nan nan nan nan nan nan nan nan nan nan nan nan 25 26 25 21 18 18 19 22 26 28 25 23 21 19 15 12 9 8 8 9 10 8 8 10 14 16 18 19 19 19 20 20 20 18 16 15 16 15 15 17 17 16 14 13 13 13
nan nan nan nan nan nan nan nan nan nan nan nan nan nan nan nan nan nan nan nan nan nan nan nan nan nan nan nan nan nan nan nan nan nan nan nan nan nan nan nan nan 28 28 24 22 21 23 23 24 25 24 23 22 19 18 15 12 11 9 10 10 9 11 13 15 16 17 17 18 19 20 19 19 18 16 15 17 16 16 17 18 17 14 14 13 12
nan nan nan nan nan nan nan nan nan nan nan nan nan nan nan nan nan nan nan nan nan nan nan nan nan nan nan nan nan nan nan nan nan nan nan nan nan nan nan nan nan 33 30 27 26 26 22 20 22 25 26 26 21 19 20 18 15 13 12 10 11 12 13 14 16 17 18 18 18 19 18 19 18 16 16 16 17 17 18 18 18 17 16 14 13 13
nan nan nan nan nan nan nan nan nan nan nan nan nan nan nan nan nan nan nan nan nan nan nan nan nan nan nan nan nan nan nan nan nan nan nan nan nan nan nan nan nan 33 32 30 30 27 27 28 26 25 25 24 20 20 20 18 16 16 16 14 13 14 15 16 17 18 19 18 17 19 18 18 17 18 18 19 19 21 21 19 18 17 16 16 14 13
nan nan nan nan nan nan nan nan nan nan nan nan nan nan nan nan nan nan nan nan nan nan nan nan nan nan nan nan nan nan nan nan nan nan nan nan nan nan nan nan nan nan 34 35 34 32 28 25 25 24 22 20 20 21 22 19 18 18 19 17 16 16 17 19 18 19 19 19 18 19 18 17 18 18 20 21 22 22 21 21 20 18 18 17 15 13
nan nan nan nan nan nan nan nan nan nan nan nan nan nan nan nan nan nan nan nan nan nan nan nan nan nan nan nan nan nan nan nan nan nan nan nan nan nan nan nan nan nan 36 34 33 32 28 24 24 24 22 21 21 24 24 22 21 22 24 22 20 19 18 20 20 19 19 18 17 17 18 19 20 21 22 23 23 22 22 21 21 20 19 18 16 17
nan nan nan nan nan nan nan nan nan nan nan nan nan nan nan nan nan nan nan nan nan nan nan nan nan nan nan nan nan nan nan nan nan nan nan nan nan nan nan nan nan nan nan nan 34 30 29 25 24 25 25 27 23 24 25 24 23 24 24 22 21 20 19 22 20 20 18 16 16 19 20 21 22 22 23 23 23 22 22 22 22 21 19 18 17 17
nan nan nan nan nan nan nan nan nan nan nan nan nan nan nan nan nan nan nan nan nan nan nan nan nan nan nan 34 38 nan nan 44 43 43 46 48 48 49 48 44 nan nan nan nan nan 34 31 27 25 27 28 26 24 24 23 24 24 23 21 22 23 23 21 22 23 21 18 15 17 20 21 21 22 23 22 22 23 23 22 22 23 22 19 18 17 16
nan nan nan nan nan nan nan nan nan nan nan nan nan nan nan nan nan nan nan nan nan nan nan nan nan nan 41 40 40 40 41 44 44 44 45 46 49 50 48 45 44 nan nan nan nan 36 33 29 30 28 25 22 20 20 22 25 25 24 20 21 22 23 23 21 20 18 18 18 21 21 20 20 21 21 21 22 22 22 22 22 21 21 19 18 17 18
nan nan nan nan nan nan nan nan nan nan nan nan nan nan nan nan nan nan nan nan nan nan nan nan nan 50 nan 42 41 40 41 42 42 41 41 42 46 48 46 44 43 42 nan nan nan 28 27 28 29 26 22 22 19 17 18 23 24 22 21 23 24 26 23 20 19 20 21 21 22 20 19 20 20 20 21 21 21 22 23 21 20 19 19 17 17 18
nan nan nan nan nan nan nan nan nan nan nan nan nan nan nan nan nan nan nan nan nan nan nan nan nan nan 49 44 42 41 41 42 42 40 38 41 47 49 48 46 42 37 32 nan nan nan 25 31 32 29 26 23 16 15 20 22 21 23 24 27 31 28 25 23 22 24 23 23 21 20 19 19 19 19 19 21 22 22 21 20 18 19 19 19 19 17
nan nan nan nan nan nan nan nan nan nan nan nan nan nan nan nan nan nan nan nan nan nan nan nan nan nan 51 47 43 40 40 40 40 40 39 41 45 46 44 41 37 34 28 nan nan nan 28 34 36 34 33 26 21 25 27 26 25 28 27 30 29 27 27 25 25 25 24 23 22 21 19 18 17 18 19 20 21 20 19 18 19 19 19 18 16 16
nan nan nan nan nan nan nan nan nan nan nan nan nan nan nan nan nan 64 nan nan nan nan nan nan nan 56 54 51 48 44 38 36 35 37 43 43 43 40 36 33 32 32 29 22 21 24 28 29 32 32 30 27 26 26 27 25 25 24 25 29 30 28 26 25 24 25 25 24 21 18 17 17 17 17 18 18 18 17 17 18 18 18 19 18 16 16
nan nan nan nan nan nan nan nan nan nan nan nan nan nan nan 67 nan 64 61 nan nan nan nan nan nan 60 60 56 52 47 42 39 36 34 45 45 43 37 33 32 32 31 28 25 23 27 32 33 36 36 39 33 28 29 28 28 27 26 28 30 30 30 28 26 24 24 23 21 20 18 18 17 17 17 17 17 16 15 15 17 17 18 19 17 16 16
nan nan nan nan nan nan nan nan nan nan nan nan nan nan nan nan nan nan nan nan nan nan nan 68 63 62 63 61 56 52 45 41 39 42 47 47 43 40 38 37 33 30 28 26 26 31 32 33 35 39 35 34 31 31 33 32 30 30 31 31 32 30 28 24 21 22 22 21 20 20 19 18 18 17 17 16 13 13 15 16 17 17 18 16 14 13
nan nan nan nan nan nan nan nan nan nan nan nan nan nan nan nan nan nan nan 65 nan nan nan nan 65 64 61 59 57 52 44 43 45 47 48 48 45 45 46 43 38 34 31 29 24 25 27 31 33 35 36 35 35 36 38 36 33 32 32 33 31 27 24 21 20 21 21 20 21 21 20 19 18 17 16 14 13 13 13 13 14 15 15 14 13 12
nan nan nan nan nan nan nan nan nan nan nan nan nan nan nan nan nan nan nan 63 nan nan 73 70 65 67 65 62 58 58 61 53 52 49 49 48 47 52 50 47 43 39 36 30 28 24 26 31 35 32 32 31 34 37 37 35 32 30 32 31 30 26 22 20 19 19 20 20 20 20 20 19 18 16 14 13 12 12 12 13 13 12 12 12 12 12
nan nan nan nan nan nan nan nan nan nan nan nan nan nan nan 63 57 nan 60 nan nan nan 71 69 63 64 62 61 60 60 60 57 53 50 50 50 57 57 54 50 46 43 39 35 31 26 21 23 25 25 25 31 36 36 35 33 31 31 33 33 29 24 20 20 21 21 21 21 20 19 18 17 15 13 11 11 11 11 11 11 11 11 10 10 10 10
nan nan nan nan nan nan nan nan nan nan nan nan 59 nan nan nan nan 60 nan nan nan 71 69 66 64 64 64 62 60 60 61 61 58 51 52 60 59 58 57 55 51 48 44 39 37 31 25 23 25 25 26 30 30 31 32 32 31 32 33 32 26 22 24 25 24 23 22 20 18 16 15 14 14 12 12 11 12 12 11 11 10 10 9 10 10 9
nan nan nan nan nan nan nan nan nan nan nan nan nan nan nan nan nan nan nan nan nan 70 65 65 66 64 64 63 65 63 64 64 59 58 61 60 63 62 59 58 54 52 51 46 39 35 30 30 31 29 27 26 26 29 31 30 30 31 32 27 25 28 29 29 25 22 20 18 17 16 14 14 13 14 14 13 12 11 11 12 11 11 11 11 10 9
nan nan nan nan nan nan nan nan nan nan nan nan nan nan nan nan nan nan nan nan nan nan 62 60 65 67 63 62 63 66 66 64 62 66 65 67 67 64 62 61 58 56 53 49 42 35 32 31 33 34 32 30 30 31 32 30 31 31 30 28 33 33 32 30 26 24 22 22 20 19 17 16 15 15 15 14 14 14 13 14 14 13 13 11 11 12
nan nan nan nan nan nan nan nan nan nan nan nan nan nan nan nan nan nan nan nan nan nan 59 56 62 66 65 63 63 65 66 68 67 65 65 66 66 65 64 60 58 57 54 50 46 38 32 32 36 38 40 39 38 35 33 32 33 33 33 38 38 33 31 29 28 26 25 24 23 21 19 20 19 18 18 18 18 18 17 17 17 16 14 13 12 12
nan nan nan nan nan nan nan nan nan nan nan nan nan nan nan nan nan nan nan nan nan 64 61 58 60 64 66 65 64 66 67 68 70 70 70 71 69 68 65 64 63 61 57 53 48 42 35 35 41 44 45 45 43 38 36 36 36 38 42 41 37 35 33 32 31 31 29 28 26 24 24 23 22 22 22 21 21 20 21 20 20 20 20 17 16 16
nan nan nan nan nan nan nan nan nan nan nan nan nan nan nan nan nan nan nan nan nan 61 60 58 59 62 65 65 66 67 69 70 71 71 69 71 74 72 68 65 62 59 57 54 49 42 38 40 45 49 48 48 45 41 39 42 44 44 42 40 39 38 37 35 36 36 35 32 31 30 28 26 26 26 26 25 25 24 24 25 24 24 24 21 21 19
nan nan nan nan nan nan nan nan nan nan nan nan nan nan nan nan nan nan nan nan nan nan 57 58 59 61 64 65 68 69 70 70 73 74 71 70 72 71 67 64 62 59 55 51 48 46 42 43 47 51 51 48 45 43 41 41 42 41 40 39 39 39 38 38 39 38 36 34 36 37 35 33 32 32 32 30 29 27 28 29 29 28 26 25 24 21
nan nan nan nan nan nan nan nan nan nan nan nan nan nan nan nan nan nan nan nan nan nan nan 57 58 59 63 65 67 70 72 72 73 74 74 71 71 71 69 66 62 59 56 53 49 46 44 44 48 52 53 50 47 45 43 42 42 43 43 41 39 38 37 38 39 39 39 39 40 40 40 39 40 38 38 37 39 45 47 43 35 32 30 29 28 27
nan nan nan nan nan nan nan nan nan nan nan nan nan nan nan nan nan nan nan nan nan nan nan 56 58 61 62 64 67 69 72 71 74 75 74 73 72 72 71 69 64 60 57 54 49 48 46 47 48 51 53 51 49 47 45 44 43 44 44 44 43 42 42 42 41 40 39 38 38 38 39 39 39 38 39 42 45 48 51 54 53 51 44 37 43 40
nan nan nan nan nan nan nan nan nan nan nan nan nan nan nan nan nan nan nan nan nan nan nan nan 55 60 62 64 65 69 71 70 73 75 74 73 73 73 71 69 65 61 57 55 52 52 49 49 50 52 53 52 51 50 48 46 45 45 45 45 44 44 44 44 44 43 42 41 40 40 40 40 39 39 42 44 46 46 47 47 50 57 56 50 46 44
Wind_Direction
nan nan nan nan nan nan nan nan nan nan nan nan nan nan nan nan nan nan nan nan nan nan nan nan nan nan nan 203 237 244 234 221 221 220 200 165 191 260 318 4 16 28 47 49 41 36 33 32 39 63 92 101 115 128 126 129 129 137 143 132 114 137 123 120 118 120 128 134 139 141 137 135 136 136 136 136 134 130 127 124 122 123 121 117 114 113
nan nan nan nan nan nan nan nan nan nan nan nan nan nan nan nan nan nan nan nan nan nan nan nan nan nan nan nan 220 237 233 226 218 205 208 219 199 202 353 27 38 42 101 61 56 44 38 43 36 49 97 84 74 116 122 121 127 131 127 135 139 121 122 117 134 144 148 150 150 151 143 141 143 144 142 140 138 131 131 127 124 124 122 118 117 116
nan nan nan nan nan nan nan nan nan nan nan nan nan nan nan nan nan nan nan nan nan nan nan nan nan nan nan nan 212 233 237 222 208 194 217 242 219 191 160 85 80 56 48 55 55 43 38 34 35 48 88 101 89 104 122 131 134 131 134 143 141 139 141 132 132 159 162 163 158 149 151 141 147 145 143 140 140 136 129 126 122 122 121 118 117 113
nan nan nan nan nan nan nan nan nan nan nan nan nan nan nan nan nan nan nan nan nan nan nan nan nan nan nan nan 200 221 229 219 207 183 191 204 221 207 213 221 108 62 49 46 48 47 42 36 40 47 69 94 96 105 109 129 123 143 143 138 140 147 139 140 150 159 160 158 150 148 154 146 137 146 145 144 144 138 130 124 125 123 119 115 113 108
nan nan nan nan nan nan nan nan nan nan nan nan nan nan nan nan nan nan nan nan nan nan nan nan nan nan nan nan nan 204 216 214 212 206 200 191 182 193 202 205 197 123 67 62 55 57 51 40 38 41 49 76 91 89 96 121 142 161 136 141 151 155 147 164 159 126 132 126 136 145 152 146 135 144 146 145 142 139 138 133 128 122 117 113 109 106
nan nan nan nan nan nan nan nan nan nan nan nan nan nan nan nan nan nan nan nan nan nan nan nan nan nan nan nan nan 205 219 207 213 221 214 202 206 212 208 208 219 181 137 85 54 49 50 48 41 41 41 52 84 93 101 134 161 163 158 153 159 164 162 163 160 122 132 108 118 122 121 129 136 139 147 146 147 149 140 127 127 120 113 109 106 103
nan nan nan nan nan nan nan nan nan nan nan nan nan nan nan nan nan nan nan nan nan nan nan nan nan nan nan nan nan 204 214 204 214 215 208 215 217 207 196 207 224 227 160 110 96 77 61 53 44 37 36 35 54 104 141 165 172 173 172 164 163 166 169 168 156 125 123 110 122 124 133 143 148 152 156 162 161 155 149 140 128 126 116 108 104 101
nan nan nan nan nan nan nan nan nan nan nan nan nan nan nan nan nan nan nan nan nan nan nan nan nan nan nan nan nan nan 202 200 213 213 207 221 224 197 187 189 204 229 188 133 85 70 59 49 39 33 29 25 30 147 177 177 184 187 191 185 173 171 169 165 150 127 111 131 134 131 148 157 160 158 162 165 161 158 153 139 125 124 117 109 103 101
nan nan nan nan nan nan nan nan nan nan nan nan nan nan nan nan nan nan nan nan nan nan nan nan nan nan nan nan nan nan nan 197 202 209 215 224 220 194 187 184 190 230 229 153 107 83 69 61 51 37 29 24 15 360 204 195 194 196 201 200 187 173 169 153 136 144 124 152 156 156 164 166 167 156 152 163 159 153 147 131 128 121 117 113 105 101
nan nan nan nan nan nan nan nan nan nan nan nan nan nan nan nan nan nan nan nan nan nan nan nan nan nan nan nan nan nan nan nan 197 204 219 225 217 201 187 181 184 214 220 187 131 115 96 81 70 52 32 13 16 3 243 222 209 202 202 205 200 179 169 155 146 155 149 159 166 157 166 156 157 152 152 153 154 149 146 127 123 123 119 115 111 105
nan nan nan nan nan nan nan nan nan nan nan nan nan nan nan nan nan nan nan nan nan nan nan nan nan nan nan nan nan nan nan nan nan 206 217 219 211 200 191 192 198 210 220 208 188 149 132 123 99 68 34 20 10 359 306 251 226 215 203 205 208 193 183 156 150 156 155 164 165 157 151 114 110 128 153 157 149 149 144 135 127 121 118 117 112 110
nan nan nan nan nan nan nan nan nan nan nan nan nan nan nan nan nan nan nan nan nan nan nan nan nan nan nan nan nan nan nan nan nan nan 219 222 216 206 200 199 196 207 229 235 223 209 216 161 86 69 44 23 12 2 341 282 236 223 211 206 205 203 195 170 166 167 170 168 142 139 124 105 117 138 157 143 139 140 137 136 133 132 129 119 117 116
nan nan nan nan nan nan nan nan nan nan nan nan nan nan nan nan nan nan nan nan nan nan nan nan nan nan nan nan nan nan nan nan nan nan nan 219 216 208 201 199 195 199 221 242 246 247 254 304 62 47 36 22 9 7 356 337 263 231 224 224 213 200 202 193 183 174 173 168 148 126 123 123 146 152 158 156 150 153 151 145 136 139 130 128 122 116
nan nan nan nan nan nan nan nan nan nan nan nan nan nan nan nan nan nan nan nan nan nan nan nan nan nan nan nan nan nan nan nan nan nan nan nan 215 212 205 202 200 206 220 238 254 262 269 276 128 49 36 27 14 9 0 353 301 235 226 234 218 200 206 202 193 184 177 159 161 151 146 148 165 165 168 167 162 163 164 160 146 137 130 124 107 104
nan nan nan nan nan nan nan nan nan nan nan nan nan nan nan nan nan nan nan nan nan nan nan nan nan nan nan nan nan nan nan nan nan nan nan nan 207 209 208 209 208 212 220 234 248 261 276 279 282 257 25 42 34 21 6 355 323 240 234 238 231 212 210 206 202 195 183 186 193 185 161 160 172 175 177 176 175 175 171 162 148 147 139 123 111 107
nan nan nan nan nan nan nan nan nan nan nan nan nan nan nan nan nan nan nan nan nan nan nan nan nan nan nan nan nan nan nan nan nan nan nan nan nan 210 214 214 212 215 225 238 249 257 267 266 266 250 240 247 39 26 18 3 332 257 231 239 245 229 218 207 204 199 198 198 198 191 175 167 179 186 184 186 191 187 184 174 158 155 148 133 124 121
nan nan nan nan nan nan nan nan nan nan nan nan nan nan nan nan nan nan nan nan nan nan nan nan nan nan nan nan nan nan nan nan nan nan nan nan nan 218 nan 214 217 222 229 236 243 251 265 264 270 270 270 258 294 27 25 3 331 292 236 231 237 229 221 214 206 203 205 206 205 189 184 180 188 190 185 184 183 173 181 179 172 166 150 142 141 142
nan nan nan nan nan nan nan nan nan nan nan nan nan nan nan nan nan nan nan nan nan nan nan nan nan nan nan nan nan nan nan nan nan nan nan nan nan nan nan 216 222 228 235 245 250 253 262 268 278 273 258 284 332 4 3 327 305 272 242 237 236 229 227 221 215 210 210 212 210 203 190 184 190 192 184 183 185 186 187 190 188 176 173 154 153 160
nan nan nan nan nan nan nan nan nan nan nan nan nan nan nan nan nan nan nan nan nan nan nan nan nan nan nan nan nan nan nan nan nan nan nan nan nan nan nan 216 223 227 226 228 236 239 243 247 254 254 254 286 297 288 308 284 289 270 251 239 239 238 229 227 215 212 210 212 210 205 198 192 195 196 194 190 189 191 187 184 193 180 171 172 176 183
nan nan nan nan nan nan nan nan nan nan nan nan nan nan nan nan nan nan nan nan nan nan nan nan nan nan nan nan nan nan nan nan nan nan nan nan nan nan nan nan 223 227 226 226 236 244 247 252 263 264 251 254 285 291 285 296 284 308 284 252 235 228 226 228 223 219 217 215 213 211 206 199 200 203 201 196 194 190 186 188 190 189 184 186 189 190
nan nan nan nan nan nan nan nan nan nan nan nan nan nan nan nan nan nan nan nan nan nan nan nan nan nan nan nan nan nan nan nan nan nan nan nan nan nan nan 214 224 230 225 222 233 242 250 248 248 240 231 223 229 239 252 269 295 298 277 264 255 249 246 242 236 230 223 221 217 218 216 210 208 207 204 197 192 187 187 192 193 194 190 198 197 207
nan nan nan nan nan nan nan nan nan nan nan nan nan nan nan nan nan nan nan nan nan nan nan nan nan nan nan nan nan nan nan nan nan nan nan nan nan nan nan 210 225 229 224 226 234 243 250 247 235 224 221 221 227 237 260 265 266 283 296 281 266 250 245 249 243 232 230 228 225 225 221 215 211 210 205 199 193 190 193 195 198 200 202 200 206 214
nan nan nan nan nan nan nan nan nan nan nan nan nan nan nan nan nan nan nan nan nan nan nan nan nan nan nan nan nan nan nan nan nan nan nan nan nan nan nan nan 221 228 226 225 235 243 250 246 234 227 232 240 245 249 263 255 260 277 291 280 263 257 255 251 246 238 232 229 228 230 226 221 216 216 211 203 196 192 195 198 201 205 202 198 203 215
nan nan nan nan nan nan nan nan nan nan nan nan nan nan nan nan nan nan nan nan nan nan nan nan nan nan nan nan nan nan nan nan nan nan nan nan nan nan nan nan 213 219 220 219 220 230 239 241 235 227 230 233 234 235 245 243 243 250 261 272 268 273 263 247 238 239 239 234 230 232 230 227 222 223 217 206 199 197 199 203 207 208 203 204 208 216
nan nan nan nan nan nan nan nan nan nan nan nan nan nan nan nan nan nan nan nan nan nan nan nan nan nan nan nan nan nan nan nan nan nan nan nan nan nan nan nan nan 212 218 220 220 227 236 243 242 233 234 238 239 245 249 251 248 251 259 265 270 266 260 245 235 236 238 239 237 235 232 232 229 227 222 211 204 203 207 209 211 212 209 210 212 215
nan nan nan nan nan nan nan nan nan nan nan nan nan nan nan nan nan nan nan nan nan nan nan nan nan nan nan nan nan nan nan nan nan nan nan nan nan nan nan nan nan 207 212 216 220 227 231 231 230 229 231 233 243 251 253 253 256 253 252 261 259 258 253 247 237 235 236 239 239 236 238 237 234 231 229 221 212 210 213 215 216 215 214 215 217 220
nan nan nan nan nan nan nan nan nan nan nan nan nan nan nan nan nan nan nan nan nan nan nan nan nan nan nan nan nan nan nan nan nan nan nan nan nan nan nan nan nan 206 207 209 218 222 220 218 224 233 235 240 254 258 260 267 266 258 251 255 254 252 252 247 241 237 237 238 240 237 240 242 240 234 231 226 219 215 216 219 220 219 217 219 220 223
nan nan nan nan nan nan nan nan nan nan nan nan nan nan nan nan nan nan nan nan nan nan nan nan nan nan nan nan nan nan nan nan nan nan nan nan nan nan nan nan nan nan 204 210 213 217 220 218 223 229 235 242 250 256 261 266 267 262 256 259 252 250 248 242 244 243 240 238 236 236 241 241 239 235 232 229 226 221 220 221 223 223 221 223 225 223
nan nan nan nan nan nan nan nan nan nan nan nan nan nan nan nan nan nan nan nan nan nan nan nan nan nan nan nan nan nan nan nan nan nan nan nan nan nan nan nan nan nan 200 208 212 213 213 217 222 228 233 236 246 254 262 261 262 256 252 252 249 248 251 248 247 245 243 239 236 233 237 235 231 230 232 233 231 228 225 225 226 226 227 228 226 224
nan nan nan nan nan nan nan nan nan nan nan nan nan nan nan nan nan nan nan nan nan nan nan nan nan nan nan nan nan nan nan nan nan nan nan nan nan nan nan nan nan nan nan nan 209 207 204 207 219 227 231 234 241 249 257 257 257 259 262 260 260 255 250 245 246 247 245 240 234 231 234 232 228 229 231 233 234 233 230 227 227 229 230 230 229 228
nan nan nan nan nan nan nan nan nan nan nan nan nan nan nan nan nan nan nan nan nan nan nan nan nan nan nan 208 195 nan nan 210 208 201 198 198 197 197 198 195 nan nan nan nan nan 209 207 206 216 226 229 232 236 245 253 254 258 258 264 257 260 257 254 250 246 244 244 238 233 233 233 229 228 228 230 231 232 233 232 229 227 228 230 230 230 232
nan nan nan nan nan nan nan nan nan nan nan nan nan nan nan nan nan nan nan nan nan nan nan nan nan nan 210 199 193 195 206 214 213 206 201 198 195 196 196 194 192 nan nan nan nan 208 211 211 218 226 232 235 237 243 246 249 254 255 259 258 262 260 254 251 248 247 240 234 233 234 235 232 232 230 229 230 232 233 233 230 228 230 232 233 235 236
nan nan nan nan nan nan nan nan nan nan nan nan nan nan nan nan nan nan nan nan nan nan nan nan nan 204 nan 196 191 200 210 217 216 212 203 195 193 194 195 194 194 195 nan nan nan 209 216 221 224 227 232 234 235 244 256 259 260 260 260 259 257 256 256 253 248 242 237 233 235 235 235 236 237 236 234 234 234 233 233 233 231 231 233 234 234 234
nan nan nan nan nan nan nan nan nan nan nan nan nan nan nan nan nan nan nan nan nan nan nan nan nan nan 191 190 194 199 207 213 215 212 206 198 193 192 194 196 196 196 196 nan nan nan 220 227 225 223 227 229 236 252 253 259 262 256 252 249 248 257 251 248 240 236 236 234 236 236 237 238 239 239 237 236 236 236 236 236 235 235 234 233 236 240
nan nan nan nan nan nan nan nan nan nan nan nan nan nan nan nan nan nan nan nan nan nan nan nan nan nan 186 185 187 191 197 207 212 210 201 197 194 193 190 189 192 196 194 nan nan nan 228 233 229 226 221 217 221 230 238 242 244 247 249 248 252 251 247 244 238 234 234 234 234 235 237 240 241 240 240 240 240 239 238 238 236 239 238 238 241 244
nan nan nan nan nan nan nan nan nan nan nan nan nan nan nan nan nan 217 nan nan nan nan nan nan nan 189 184 181 183 190 194 196 199 201 199 195 195 189 182 180 186 192 190 196 213 223 229 236 235 232 224 216 225 232 240 242 245 252 251 249 248 250 249 244 235 233 232 233 236 240 242 244 243 242 242 243 243 242 240 238 239 241 241 239 238 238
nan nan nan nan nan nan nan nan nan nan nan nan nan nan nan 210 nan 210 217 nan nan nan nan nan nan 189 185 181 182 186 192 196 196 195 197 195 190 184 180 182 188 190 193 198 216 223 226 228 230 228 221 216 225 235 241 241 246 251 250 248 246 248 249 243 235 232 234 235 237 241 243 245 246 244 244 245 246 245 243 241 241 241 241 242 242 242
nan nan nan nan nan nan nan nan nan nan nan nan nan nan nan nan nan nan nan nan nan nan nan 202 195 190 186 182 181 184 189 194 192 193 193 191 187 185 187 190 190 194 201 205 222 228 230 230 230 229 225 222 224 232 236 241 244 246 245 243 243 249 249 246 239 233 233 235 237 241 243 245 248 247 248 247 247 246 241 240 239 243 245 247 247 243
nan nan nan nan nan nan nan nan nan nan nan nan nan nan nan nan nan nan nan 218 nan nan nan nan 194 191 190 185 181 187 194 194 194 195 192 186 185 191 189 189 191 197 203 209 219 235 234 231 232 232 228 226 226 229 235 239 242 242 240 238 243 248 249 246 240 236 236 237 238 241 244 247 251 252 254 252 248 243 242 241 240 240 242 242 241 238
nan nan nan nan nan nan nan nan nan nan nan nan nan nan nan nan nan nan nan 218 nan nan 205 200 195 193 191 186 186 199 201 198 194 192 186 183 187 194 191 190 193 198 203 207 210 219 232 231 232 235 236 234 230 234 238 239 239 239 235 236 241 244 245 244 239 235 235 236 239 241 243 245 250 251 253 249 243 237 235 234 235 239 240 239 239 241
nan nan nan nan nan nan nan nan nan nan nan nan nan nan nan 203 210 nan 216 nan nan nan 205 199 196 195 193 191 190 197 196 194 190 186 184 187 194 192 191 194 199 203 207 207 206 209 228 233 235 237 240 232 233 237 240 238 235 232 232 236 238 241 242 239 234 233 233 234 237 241 244 243 244 245 239 231 228 229 227 227 230 234 236 239 239 240
nan nan nan nan nan nan nan nan nan nan nan nan 195 nan nan nan nan 214 nan nan nan 213 205 200 197 196 194 192 191 192 192 191 189 185 188 193 193 193 193 196 200 206 209 211 209 206 209 220 224 231 232 232 236 239 237 234 229 228 232 236 238 237 237 235 235 233 232 234 236 237 236 231 225 222 213 210 212 214 214 216 220 224 232 233 237 245
nan nan nan nan nan nan nan nan nan nan nan nan nan nan nan nan nan nan nan nan nan 214 207 202 200 197 196 192 189 190 190 190 189 189 193 191 194 195 195 198 201 204 206 208 208 205 205 211 218 223 231 235 240 237 236 235 228 227 232 235 234 234 234 236 235 232 231 229 228 226 222 214 216 212 205 207 211 217 218 221 226 229 234 241 243 248
nan nan nan nan nan nan nan nan nan nan nan nan nan nan nan nan nan nan nan nan nan nan 208 202 200 198 196 193 190 190 191 191 189 191 191 193 194 195 197 199 201 202 201 205 209 206 205 211 214 220 225 231 233 234 234 232 226 227 230 232 231 233 235 236 233 231 231 229 226 224 219 214 213 212 208 213 219 223 224 228 232 234 234 240 247 247
nan nan nan nan nan nan nan nan nan nan nan nan nan nan nan nan nan nan nan nan nan nan 207 205 200 197 197 193 192 193 193 193 192 191 192 193 195 197 199 200 203 203 201 201 203 203 208 211 217 219 222 223 229 230 229 224 224 226 229 227 230 233 236 235 232 229 229 229 227 224 221 219 218 219 219 221 227 229 229 233 237 236 235 238 241 245
nan nan nan nan nan nan nan nan nan nan nan nan nan nan nan nan nan nan nan nan nan 211 208 206 199 197 197 195 194 194 196 194 194 193 193 195 196 199 200 201 204 205 202 201 199 194 201 214 218 220 223 224 226 227 223 221 223 225 223 225 227 231 233 234 232 229 228 226 226 227 226 226 227 227 228 230 229 230 231 235 240 241 242 242 244 245
nan nan nan nan nan nan nan nan nan nan nan nan nan nan nan nan nan nan nan nan nan 208 207 207 203 198 198 196 195 194 194 196 195 196 196 197 200 202 203 203 205 205 204 202 199 198 198 204 212 216 221 223 222 224 223 221 219 222 224 225 225 227 231 233 233 230 228 225 225 227 228 229 228 229 232 235 233 230 230 232 234 237 239 243 247 247
nan nan nan nan nan nan nan nan nan nan nan nan nan nan nan nan nan nan nan nan nan nan 207 206 204 202 200 198 196 195 195 197 199 198 198 199 200 203 205 205 206 205 203 202 201 202 202 203 207 212 216 219 220 221 221 219 220 224 226 226 226 228 231 234 236 236 233 231 227 226 228 228 231 232 233 238 238 235 234 234 232 232 235 239 245 246
nan nan nan nan nan nan nan nan nan nan nan nan nan nan nan nan nan nan nan nan nan nan nan 204 206 204 201 199 197 196 195 197 201 200 201 201 201 204 206 207 208 208 207 205 201 202 205 203 205 209 213 215 218 220 220 217 215 214 219 224 229 232 234 236 240 243 243 239 235 231 230 229 231 230 230 234 236 231 229 228 228 230 232 233 239 247
nan nan nan nan nan nan nan nan nan nan nan nan nan nan nan nan nan nan nan nan nan nan nan 203 201 204 200 199 200 199 198 197 199 201 203 204 202 204 207 208 209 209 209 208 205 204 204 205 204 207 209 212 215 219 220 217 213 213 213 215 220 227 234 241 244 245 247 247 246 242 240 240 241 239 236 236 238 238 237 233 233 227 228 233 233 234
nan nan nan nan nan nan nan nan nan nan nan nan nan nan nan nan nan nan nan nan nan nan nan nan 202 201 201 200 202 202 200 199 198 201 203 205 204 206 208 209 210 210 210 210 209 205 203 203 204 205 207 208 212 217 220 218 215 214 215 215 218 222 230 236 240 242 245 247 248 249 249 249 250 249 246 246 247 249 250 248 241 235 231 230 233 236